| time (UTC) | temp F | wind direction | speed MPH | gust MPH | rain 1hr in | rain 24hr in | rain mn in | humidity % | barometer mb |
| 20260509194618 | 47 | 0 | 0.0 | 0.0 | 0.00 | 0.00 | 0.00 | 7 | 1019.7 |
| 20260509194118 | 47 | 0 | 0.0 | 0.0 | 0.00 | 0.00 | 0.00 | 7 | 1019.6 |
| 20260509193617 | 47 | 0 | 0.0 | 0.0 | 0.00 | 0.00 | 0.00 | 7 | 1019.7 |
| 20260509193117 | 48 | 0 | 0.0 | 0.0 | 0.00 | 0.00 | 0.00 | 7 | 1019.7 |
| 20260509192617 | 48 | 0 | 0.0 | 0.0 | 0.00 | 0.00 | 0.00 | 7 | 1019.7 |
| 20260509192117 | 48 | 0 | 0.0 | 0.0 | 0.00 | 0.00 | 0.00 | 7 | 1019.8 |
| 20260509191616 | 48 | 0 | 0.0 | 0.0 | 0.00 | 0.00 | 0.00 | 7 | 1019.6 |
| 20260509191116 | 48 | 0 | 0.0 | 0.0 | 0.00 | 0.00 | 0.00 | 7 | 1019.4 |
| 20260509190615 | 49 | 0 | 0.0 | 0.0 | 0.00 | 0.00 | 0.00 | 7 | 1019.7 |
| 20260509190115 | 49 | 0 | 0.0 | 0.0 | 0.00 | 0.00 | 0.00 | 7 | 1019.5 |
| 20260509185615 | 49 | 0 | 0.0 | 0.0 | 0.00 | 0.00 | 0.00 | 7 | 1019.5 |
| 20260509185114 | 49 | 0 | 0.0 | 0.0 | 0.00 | 0.00 | 0.00 | 7 | 1019.5 |
| 20260509184614 | 50 | 0 | 0.0 | 0.0 | 0.00 | 0.00 | 0.00 | 7 | 1019.5 |
| 20260509184114 | 50 | 0 | 0.0 | 0.0 | 0.00 | 0.00 | 0.00 | 7 | 1019.3 |
| 20260509183613 | 50 | 0 | 0.0 | 0.0 | 0.00 | 0.00 | 0.00 | 7 | 1019.5 |
| 20260509183113 | 50 | 0 | 0.0 | 0.0 | 0.00 | 0.00 | 0.00 | 7 | 1019.4 |
| 20260509182613 | 51 | 0 | 0.0 | 0.0 | 0.00 | 0.00 | 0.00 | 7 | 1019.4 |
| 20260509182112 | 51 | 0 | 0.0 | 0.0 | 0.00 | 0.00 | 0.00 | 7 | 1019.5 |
| 20260509181612 | 51 | 0 | 0.0 | 0.0 | 0.00 | 0.00 | 0.00 | 6 | 1019.3 |
| 20260509181112 | 51 | 0 | 0.0 | 0.0 | 0.00 | 0.00 | 0.00 | 6 | 1019.3 |
| 20260509180611 | 52 | 36 | 0.0 | 1.0 | 0.00 | 0.00 | 0.00 | 6 | 1019.5 |
| 20260509180111 | 52 | 0 | 0.0 | 0.0 | 0.00 | 0.00 | 0.00 | 6 | 1019.2 |
| 20260509175611 | 52 | 342 | 0.0 | 1.0 | 0.00 | 0.00 | 0.00 | 6 | 1019.0 |
| 20260509175110 | 53 | 0 | 0.0 | 0.0 | 0.00 | 0.00 | 0.00 | 6 | 1019.1 |
| 20260509174610 | 53 | 0 | 0.0 | 0.0 | 0.00 | 0.00 | 0.00 | 6 | 1019.0 |
| 20260509174110 | 53 | 0 | 0.0 | 0.0 | 0.00 | 0.00 | 0.00 | 6 | 1018.9 |
| 20260509173609 | 54 | 41 | 0.0 | 1.0 | 0.00 | 0.00 | 0.00 | 6 | 1018.9 |
| 20260509173109 | 54 | 298 | 0.0 | 1.0 | 0.00 | 0.00 | 0.00 | 6 | 1019.0 |
| 20260509172609 | 54 | 0 | 0.0 | 0.0 | 0.00 | 0.00 | 0.00 | 6 | 1018.9 |
| 20260509172108 | 54 | 32 | 0.0 | 1.0 | 0.00 | 0.00 | 0.00 | 6 | 1019.1 |
| 20260509171608 | 54 | 0 | 0.0 | 0.0 | 0.00 | 0.00 | 0.00 | 6 | 1018.8 |
| 20260509171108 | 54 | 340 | 0.0 | 1.0 | 0.00 | 0.00 | 0.00 | 6 | 1018.7 |
| 20260509170607 | 54 | 0 | 0.0 | 0.0 | 0.00 | 0.00 | 0.00 | 6 | 1018.8 |
| 20260509170107 | 54 | 27 | 0.0 | 1.0 | 0.00 | 0.00 | 0.00 | 6 | 1018.5 |
| 20260509165607 | 55 | 0 | 0.0 | 0.0 | 0.00 | 0.00 | 0.00 | 6 | 1018.6 |
| 20260509165106 | 55 | 36 | 0.0 | 1.0 | 0.00 | 0.00 | 0.00 | 6 | 1018.7 |
| 20260509164606 | 55 | 0 | 0.0 | 0.0 | 0.00 | 0.00 | 0.00 | 6 | 1018.6 |
| 20260509164106 | 55 | 64 | 0.0 | 1.0 | 0.00 | 0.00 | 0.00 | 6 | 1018.6 |
| 20260509163605 | 55 | 344 | 0.0 | 1.0 | 0.00 | 0.00 | 0.00 | 6 | 1018.5 |
| 20260509163105 | 55 | 326 | 1.0 | 2.0 | 0.00 | 0.00 | 0.00 | 6 | 1018.5 |
| 20260509162605 | 55 | 64 | 0.0 | 2.0 | 0.00 | 0.00 | 0.00 | 6 | 1018.5 |
| 20260509162104 | 55 | 52 | 0.0 | 1.0 | 0.00 | 0.00 | 0.00 | 5 | 1018.4 |
| 20260509161604 | 55 | 299 | 0.0 | 1.0 | 0.00 | 0.00 | 0.00 | 5 | 1018.7 |
| 20260509161104 | 56 | 220 | 1.0 | 1.0 | 0.00 | 0.00 | 0.00 | 5 | 1018.4 |
| 20260509160603 | 56 | 359 | 0.0 | 1.0 | 0.00 | 0.00 | 0.00 | 5 | 1018.5 |
| 20260509160103 | 56 | 0 | 0.0 | 0.0 | 0.00 | 0.00 | 0.00 | 5 | 1018.4 |
| 20260509155603 | 56 | 234 | 2.0 | 2.0 | 0.00 | 0.00 | 0.00 | 5 | 1018.5 |
| 20260509155102 | 56 | 324 | 0.0 | 1.0 | 0.00 | 0.00 | 0.00 | 5 | 1018.4 |
| 20260509154602 | 56 | 46 | 0.0 | 2.0 | 0.00 | 0.00 | 0.00 | 5 | 1018.5 |
| 20260509154102 | 56 | 233 | 1.0 | 2.0 | 0.00 | 0.00 | 0.00 | 5 | 1018.6 |
| 20260509153601 | 57 | 313 | 1.0 | 2.0 | 0.00 | 0.00 | 0.00 | 5 | 1018.5 |
| 20260509153101 | 57 | 255 | 1.0 | 2.0 | 0.00 | 0.00 | 0.00 | 5 | 1018.3 |
| 20260509152601 | 58 | 28 | 1.0 | 2.0 | 0.00 | 0.00 | 0.00 | 5 | 1018.6 |
| 20260509152100 | 58 | 332 | 0.0 | 1.0 | 0.00 | 0.00 | 0.00 | 5 | 1018.2 |
| 20260509151600 | 57 | 173 | 2.0 | 4.0 | 0.00 | 0.00 | 0.00 | 5 | 1018.5 |
| 20260509151100 | 57 | 0 | 0.0 | 0.0 | 0.00 | 0.00 | 0.00 | 5 | 1018.2 |
| 20260509150559 | 57 | 2 | 0.0 | 1.0 | 0.00 | 0.00 | 0.00 | 6 | 1018.2 |
| 20260509150059 | 56 | 0 | 0.0 | 0.0 | 0.00 | 0.00 | 0.00 | 6 | 1018.3 |
| 20260509145559 | 55 | 0 | 0.0 | 0.0 | 0.00 | 0.00 | 0.00 | 6 | 1018.5 |
| 20260509145058 | 55 | 0 | 0.0 | 0.0 | 0.00 | 0.00 | 0.00 | 6 | 1018.6 |
| 20260509144558 | 55 | 0 | 0.0 | 0.0 | 0.00 | 0.00 | 0.00 | 6 | 1018.7 |
| 20260509144058 | 55 | 35 | 0.0 | 1.0 | 0.00 | 0.00 | 0.00 | 6 | 1018.6 |
| 20260509143557 | 55 | 4 | 0.0 | 1.0 | 0.00 | 0.00 | 0.00 | 6 | 1018.5 |
| 20260509143057 | 56 | 0 | 0.0 | 0.0 | 0.00 | 0.00 | 0.00 | 6 | 1018.5 |
| 20260509142557 | 56 | 344 | 0.0 | 1.0 | 0.00 | 0.00 | 0.00 | 6 | 1018.4 |
| 20260509142056 | 56 | 0 | 0.0 | 0.0 | 0.00 | 0.00 | 0.00 | 6 | 1018.2 |
| 20260509141556 | 57 | 0 | 0.0 | 0.0 | 0.00 | 0.00 | 0.00 | 6 | 1018.3 |
| 20260509141056 | 57 | 0 | 0.0 | 0.0 | 0.00 | 0.00 | 0.00 | 6 | 1018.2 |
| 20260509140556 | 57 | 358 | 0.0 | 1.0 | 0.00 | 0.00 | 0.00 | 5 | 1018.3 |
| 20260509140055 | 57 | 246 | 2.0 | 3.0 | 0.00 | 0.00 | 0.00 | 5 | 1018.5 |
| 20260509135555 | 57 | 0 | 0.0 | 0.0 | 0.00 | 0.00 | 0.00 | 5 | 1018.3 |
| 20260509135055 | 57 | 42 | 0.0 | 1.0 | 0.00 | 0.00 | 0.00 | 5 | 1018.4 |
| 20260509134554 | 57 | 0 | 0.0 | 0.0 | 0.00 | 0.00 | 0.00 | 5 | 1018.3 |
| 20260509134054 | 58 | 16 | 0.0 | 1.0 | 0.00 | 0.00 | 0.00 | 5 | 1018.4 |
| 20260509133553 | 57 | 0 | 0.0 | 0.0 | 0.00 | 0.00 | 0.00 | 5 | 1018.5 |
| 20260509133053 | 57 | 354 | 0.0 | 1.0 | 0.00 | 0.00 | 0.00 | 5 | 1018.4 |
| 20260509132553 | 57 | 0 | 0.0 | 0.0 | 0.00 | 0.00 | 0.00 | 5 | 1018.5 |
| 20260509132052 | 56 | 0 | 0.0 | 0.0 | 0.00 | 0.00 | 0.00 | 6 | 1018.4 |
| 20260509131552 | 56 | 0 | 0.0 | 0.0 | 0.00 | 0.00 | 0.00 | 6 | 1018.7 |
| 20260509131052 | 57 | 40 | 0.0 | 1.0 | 0.00 | 0.00 | 0.00 | 6 | 1018.5 |
| 20260509130551 | 57 | 325 | 1.0 | 2.0 | 0.00 | 0.00 | 0.00 | 5 | 1018.6 |
| 20260509130051 | 57 | 256 | 0.0 | 1.0 | 0.00 | 0.00 | 0.00 | 5 | 1018.5 |
| 20260509125551 | 56 | 0 | 0.0 | 0.0 | 0.00 | 0.00 | 0.00 | 6 | 1018.6 |
| 20260509125050 | 56 | 274 | 1.0 | 1.0 | 0.00 | 0.00 | 0.00 | 6 | 1018.6 |
| 20260509124550 | 56 | 309 | 1.0 | 2.0 | 0.00 | 0.00 | 0.00 | 6 | 1018.5 |
| 20260509124050 | 56 | 141 | 1.0 | 2.0 | 0.00 | 0.00 | 0.00 | 6 | 1018.8 |
| 20260509123549 | 56 | 0 | 0.0 | 0.0 | 0.00 | 0.00 | 0.00 | 6 | 1018.9 |
| 20260509123049 | 56 | 0 | 0.0 | 0.0 | 0.00 | 0.00 | 0.00 | 6 | 1018.6 |
| 20260509122549 | 56 | 0 | 0.0 | 0.0 | 0.00 | 0.00 | 0.00 | 6 | 1018.8 |
| 20260509122048 | 56 | 344 | 0.0 | 1.0 | 0.00 | 0.00 | 0.00 | 6 | 1018.7 |
| 20260509121548 | 56 | 0 | 0.0 | 0.0 | 0.00 | 0.00 | 0.00 | 6 | 1018.8 |
| 20260509121049 | 56 | 328 | 0.0 | 1.0 | 0.00 | 0.00 | 0.00 | 6 | 1018.8 |
| 20260509120547 | 56 | 338 | 0.0 | 1.0 | 0.00 | 0.00 | 0.00 | 6 | 1019.1 |
| 20260509120047 | 56 | 0 | 0.0 | 0.0 | 0.00 | 0.00 | 0.00 | 6 | 1019.1 |
| 20260509115547 | 56 | 0 | 0.0 | 0.0 | 0.00 | 0.00 | 0.00 | 6 | 1019.2 |
| 20260509115046 | 56 | 1 | 0.0 | 1.0 | 0.00 | 0.00 | 0.00 | 6 | 1019.0 |
| 20260509114546 | 56 | 39 | 0.0 | 1.0 | 0.00 | 0.00 | 0.00 | 6 | 1019.0 |
| 20260509114046 | 56 | 359 | 0.0 | 1.0 | 0.00 | 0.00 | 0.00 | 6 | 1019.2 |
| 20260509113545 | 56 | 337 | 0.0 | 1.0 | 0.00 | 0.00 | 0.00 | 6 | 1019.1 |
| 20260509113045 | 56 | 220 | 1.0 | 2.0 | 0.00 | 0.00 | 0.00 | 6 | 1019.0 |
| 20260509112545 | 55 | 43 | 0.0 | 1.0 | 0.00 | 0.00 | 0.00 | 6 | 1019.1 |
| 20260509112044 | 56 | 233 | 1.0 | 3.0 | 0.00 | 0.00 | 0.00 | 6 | 1019.2 |
| 20260509111544 | 56 | 354 | 0.0 | 1.0 | 0.00 | 0.00 | 0.00 | 6 | 1019.4 |
| 20260509111044 | 55 | 0 | 0.0 | 0.0 | 0.00 | 0.00 | 0.00 | 6 | 1019.4 |
| 20260509110543 | 56 | 0 | 0.0 | 0.0 | 0.00 | 0.00 | 0.00 | 6 | 1019.3 |
| 20260509110043 | 57 | 348 | 1.0 | 2.0 | 0.00 | 0.00 | 0.00 | 5 | 1019.1 |
| 20260509105543 | 55 | 307 | 1.0 | 2.0 | 0.00 | 0.00 | 0.00 | 6 | 1019.3 |
| 20260509105042 | 55 | 6 | 0.0 | 1.0 | 0.00 | 0.00 | 0.00 | 6 | 1019.2 |
| 20260509104542 | 55 | 0 | 0.0 | 0.0 | 0.00 | 0.00 | 0.00 | 6 | 1019.3 |
| 20260509104042 | 53 | 341 | 0.0 | 1.0 | 0.00 | 0.00 | 0.00 | 6 | 1019.5 |
| 20260509103541 | 53 | 0 | 0.0 | 0.0 | 0.00 | 0.00 | 0.00 | 6 | 1019.5 |
| 20260509103041 | 53 | 19 | 1.0 | 2.0 | 0.00 | 0.00 | 0.00 | 6 | 1019.3 |
| 20260509102541 | 52 | 259 | 1.0 | 2.0 | 0.00 | 0.00 | 0.00 | 6 | 1019.4 |
| 20260509102040 | 53 | 126 | 1.0 | 2.0 | 0.00 | 0.00 | 0.00 | 6 | 1019.3 |
| 20260509101540 | 52 | 336 | 0.0 | 1.0 | 0.00 | 0.00 | 0.00 | 6 | 1019.4 |
| 20260509101040 | 52 | 67 | 2.0 | 3.0 | 0.00 | 0.00 | 0.00 | 6 | 1019.3 |
| 20260509100540 | 53 | 11 | 0.0 | 1.0 | 0.00 | 0.00 | 0.00 | 6 | 1019.4 |
| 20260509100039 | 55 | 22 | 1.0 | 2.0 | 0.00 | 0.00 | 0.00 | 6 | 1019.4 |
| 20260509095539 | 55 | 292 | 1.0 | 1.0 | 0.00 | 0.00 | 0.00 | 6 | 1019.4 |
| 20260509095038 | 53 | 325 | 0.0 | 1.0 | 0.00 | 0.00 | 0.00 | 6 | 1019.2 |
| 20260509094538 | 52 | 61 | 0.0 | 1.0 | 0.00 | 0.00 | 0.00 | 6 | 1019.7 |
| 20260509094038 | 53 | 4 | 1.0 | 2.0 | 0.00 | 0.00 | 0.00 | 6 | 1019.2 |
| 20260509093537 | 54 | 345 | 0.0 | 1.0 | 0.00 | 0.00 | 0.00 | 6 | 1019.2 |
| 20260509093037 | 52 | 347 | 0.0 | 1.0 | 0.00 | 0.00 | 0.00 | 6 | 1019.3 |
| 20260509092537 | 51 | 309 | 0.0 | 1.0 | 0.00 | 0.00 | 0.00 | 7 | 1019.4 |
| 20260509092036 | 52 | 74 | 1.0 | 2.0 | 0.00 | 0.00 | 0.00 | 7 | 1019.3 |
| 20260509091536 | 52 | 320 | 1.0 | 3.0 | 0.00 | 0.00 | 0.00 | 6 | 1019.5 |
| 20260509091036 | 53 | 2 | 0.0 | 1.0 | 0.00 | 0.00 | 0.00 | 6 | 1019.1 |
| 20260509090535 | 54 | 356 | 1.0 | 2.0 | 0.00 | 0.00 | 0.00 | 6 | 1019.4 |
| 20260509090035 | 53 | 0 | 0.0 | 0.0 | 0.00 | 0.00 | 0.00 | 6 | 1019.4 |
| 20260509085535 | 51 | 0 | 0.0 | 0.0 | 0.00 | 0.00 | 0.00 | 7 | 1019.3 |
| 20260509085034 | 51 | 336 | 0.0 | 1.0 | 0.00 | 0.00 | 0.00 | 7 | 1019.6 |
| 20260509084534 | 50 | 230 | 1.0 | 3.0 | 0.00 | 0.00 | 0.00 | 7 | 1019.3 |
| 20260509084034 | 50 | 23 | 0.0 | 1.0 | 0.00 | 0.00 | 0.00 | 7 | 1019.6 |
| 20260509083533 | 50 | 0 | 0.0 | 0.0 | 0.00 | 0.00 | 0.00 | 7 | 1019.3 |
| 20260509083033 | 50 | 92 | 1.0 | 2.0 | 0.00 | 0.00 | 0.00 | 7 | 1019.5 |
| 20260509082533 | 50 | 300 | 1.0 | 1.0 | 0.00 | 0.00 | 0.00 | 7 | 1019.4 |
| 20260509082032 | 50 | 336 | 0.0 | 1.0 | 0.00 | 0.00 | 0.00 | 7 | 1019.5 |
| 20260509081532 | 50 | 27 | 0.0 | 1.0 | 0.00 | 0.00 | 0.00 | 7 | 1019.3 |
| 20260509081032 | 50 | 9 | 0.0 | 1.0 | 0.00 | 0.00 | 0.00 | 7 | 1019.2 |
| 20260509080531 | 50 | 0 | 0.0 | 0.0 | 0.00 | 0.00 | 0.00 | 7 | 1019.3 |
| 20260509080031 | 50 | 0 | 0.0 | 0.0 | 0.00 | 0.00 | 0.00 | 7 | 1019.2 |
| 20260509075531 | 51 | 333 | 0.0 | 1.0 | 0.00 | 0.00 | 0.00 | 7 | 1019.0 |
| 20260509075030 | 51 | 10 | 0.0 | 1.0 | 0.00 | 0.00 | 0.00 | 7 | 1019.1 |
| 20260509074530 | 50 | 346 | 0.0 | 1.0 | 0.00 | 0.00 | 0.00 | 7 | 1019.1 |
| 20260509074030 | 50 | 12 | 0.0 | 1.0 | 0.00 | 0.00 | 0.00 | 7 | 1019.3 |
| 20260509073529 | 50 | 0 | 0.0 | 0.0 | 0.00 | 0.00 | 0.00 | 7 | 1019.1 |
| 20260509073029 | 50 | 88 | 0.0 | 1.0 | 0.00 | 0.00 | 0.00 | 7 | 1019.1 |
| 20260509072529 | 49 | 306 | 0.0 | 1.0 | 0.00 | 0.00 | 0.00 | 7 | 1019.2 |
| 20260509072028 | 49 | 0 | 0.0 | 0.0 | 0.00 | 0.00 | 0.00 | 7 | 1019.2 |
| 20260509071528 | 49 | 349 | 1.0 | 1.0 | 0.00 | 0.00 | 0.00 | 7 | 1019.0 |
| 20260509071028 | 49 | 355 | 0.0 | 1.0 | 0.00 | 0.00 | 0.00 | 7 | 1019.0 |
| 20260509070527 | 49 | 260 | 2.0 | 2.0 | 0.00 | 0.00 | 0.00 | 7 | 1019.3 |
| 20260509070027 | 49 | 0 | 0.0 | 0.0 | 0.00 | 0.00 | 0.00 | 7 | 1018.9 |
| 20260509065527 | 50 | 341 | 0.0 | 1.0 | 0.00 | 0.00 | 0.00 | 7 | 1018.9 |
| 20260509065026 | 49 | 0 | 0.0 | 0.0 | 0.00 | 0.00 | 0.00 | 7 | 1018.9 |
| 20260509064526 | 49 | 352 | 0.0 | 1.0 | 0.00 | 0.00 | 0.00 | 8 | 1018.8 |
| 20260509064026 | 49 | 0 | 0.0 | 0.0 | 0.00 | 0.00 | 0.00 | 8 | 1018.8 |
| 20260509063525 | 49 | 0 | 0.0 | 0.0 | 0.00 | 0.00 | 0.00 | 8 | 1018.9 |
| 20260509063025 | 49 | 0 | 0.0 | 0.0 | 0.00 | 0.00 | 0.00 | 8 | 1019.0 |
| 20260509062525 | 49 | 331 | 1.0 | 2.0 | 0.00 | 0.00 | 0.00 | 8 | 1018.9 |
| 20260509062024 | 49 | 0 | 0.0 | 0.0 | 0.00 | 0.00 | 0.00 | 8 | 1018.8 |
| 20260509061524 | 49 | 346 | 1.0 | 1.0 | 0.00 | 0.00 | 0.00 | 8 | 1018.7 |
| 20260509061024 | 50 | 320 | 1.0 | 1.0 | 0.00 | 0.00 | 0.00 | 8 | 1018.8 |
| 20260509060524 | 50 | 0 | 0.0 | 0.0 | 0.00 | 0.00 | 0.00 | 8 | 1019.0 |
| 20260509060023 | 49 | 0 | 0.0 | 0.0 | 0.00 | 0.00 | 0.00 | 8 | 1018.8 |
| 20260509055523 | 49 | 0 | 0.0 | 0.0 | 0.00 | 0.00 | 0.00 | 8 | 1018.4 |
| 20260509055023 | 48 | 358 | 0.0 | 1.0 | 0.00 | 0.00 | 0.00 | 8 | 1018.5 |
| 20260509054522 | 48 | 0 | 0.0 | 0.0 | 0.00 | 0.00 | 0.00 | 8 | 1018.8 |
| 20260509054022 | 48 | 0 | 0.0 | 0.0 | 0.00 | 0.00 | 0.00 | 8 | 1018.6 |
| 20260509053522 | 48 | 0 | 0.0 | 0.0 | 0.00 | 0.00 | 0.00 | 8 | 1018.7 |
| 20260509053021 | 48 | 0 | 0.0 | 0.0 | 0.00 | 0.00 | 0.00 | 8 | 1018.6 |
| 20260509052521 | 48 | 0 | 0.0 | 0.0 | 0.00 | 0.00 | 0.00 | 8 | 1018.8 |
| 20260509052021 | 48 | 0 | 0.0 | 0.0 | 0.00 | 0.00 | 0.00 | 8 | 1018.7 |
| 20260509051520 | 48 | 255 | 2.0 | 3.0 | 0.00 | 0.00 | 0.00 | 8 | 1018.7 |
| 20260509051020 | 48 | 0 | 0.0 | 0.0 | 0.00 | 0.00 | 0.00 | 8 | 1018.5 |
| 20260509050520 | 48 | 224 | 2.0 | 2.0 | 0.00 | 0.00 | 0.00 | 8 | 1018.5 |
| 20260509050019 | 48 | 0 | 0.0 | 0.0 | 0.00 | 0.00 | 0.00 | 8 | 1018.6 |
| 20260509045519 | 48 | 0 | 0.0 | 0.0 | 0.00 | 0.00 | 0.00 | 8 | 1018.6 |
| 20260509045019 | 48 | 0 | 0.0 | 0.0 | 0.00 | 0.00 | 0.00 | 9 | 1018.5 |
| 20260509044518 | 48 | 0 | 0.0 | 0.0 | 0.00 | 0.00 | 0.00 | 9 | 1018.5 |
| 20260509044018 | 48 | 0 | 0.0 | 0.0 | 0.00 | 0.00 | 0.00 | 9 | 1018.5 |
| 20260509043518 | 48 | 0 | 0.0 | 0.0 | 0.00 | 0.00 | 0.00 | 9 | 1018.5 |
| 20260509043017 | 48 | 325 | 0.0 | 1.0 | 0.00 | 0.00 | 0.00 | 9 | 1018.4 |
| 20260509042517 | 48 | 0 | 0.0 | 0.0 | 0.00 | 0.00 | 0.00 | 9 | 1018.5 |
| 20260509042017 | 48 | 0 | 0.0 | 0.0 | 0.00 | 0.00 | 0.00 | 9 | 1018.5 |
| 20260509041516 | 48 | 9 | 0.0 | 1.0 | 0.00 | 0.00 | 0.00 | 9 | 1018.6 |
| 20260509041016 | 47 | 0 | 0.0 | 1.0 | 0.00 | 0.00 | 0.00 | 9 | 1018.4 |
| 20260509040516 | 47 | 0 | 0.0 | 0.0 | 0.00 | 0.00 | 0.00 | 9 | 1018.5 |
| 20260509040015 | 47 | 0 | 0.0 | 0.0 | 0.00 | 0.00 | 0.00 | 9 | 1018.4 |
| 20260509035515 | 47 | 0 | 0.0 | 0.0 | 0.00 | 0.00 | 0.00 | 9 | 1018.6 |
| 20260509035015 | 47 | 0 | 0.0 | 0.0 | 0.00 | 0.00 | 0.00 | 9 | 1018.5 |
| 20260509034514 | 47 | 0 | 0.0 | 0.0 | 0.00 | 0.00 | 0.00 | 9 | 1018.6 |
| 20260509034014 | 48 | 0 | 0.0 | 0.0 | 0.00 | 0.00 | 0.00 | 9 | 1018.5 |
| 20260509033514 | 48 | 0 | 0.0 | 0.0 | 0.00 | 0.00 | 0.00 | 9 | 1018.5 |
| 20260509033013 | 48 | 0 | 0.0 | 0.0 | 0.00 | 0.00 | 0.00 | 9 | 1018.6 |
| 20260509032513 | 47 | 0 | 0.0 | 0.0 | 0.00 | 0.00 | 0.00 | 9 | 1018.6 |
| 20260509032013 | 47 | 336 | 0.0 | 1.0 | 0.00 | 0.00 | 0.00 | 9 | 1018.7 |
| 20260509031512 | 47 | 0 | 0.0 | 0.0 | 0.00 | 0.00 | 0.00 | 9 | 1018.6 |
| 20260509031012 | 47 | 0 | 0.0 | 0.0 | 0.00 | 0.00 | 0.00 | 9 | 1018.5 |
| 20260509030512 | 47 | 0 | 0.0 | 0.0 | 0.00 | 0.00 | 0.00 | 9 | 1018.5 |
| 20260509030011 | 47 | 0 | 0.0 | 0.0 | 0.00 | 0.00 | 0.00 | 9 | 1018.4 |
| 20260509025511 | 47 | 0 | 0.0 | 0.0 | 0.00 | 0.00 | 0.00 | 9 | 1018.4 |
| 20260509025011 | 47 | 0 | 0.0 | 0.0 | 0.00 | 0.00 | 0.00 | 9 | 1018.4 |
| 20260509024510 | 47 | 0 | 0.0 | 0.0 | 0.00 | 0.00 | 0.00 | 9 | 1018.3 |
| 20260509024010 | 47 | 327 | 0.0 | 1.0 | 0.00 | 0.00 | 0.00 | 9 | 1018.3 |
| 20260509023510 | 47 | 327 | 0.0 | 1.0 | 0.00 | 0.00 | 0.00 | 9 | 1018.5 |
| 20260509023009 | 47 | 0 | 0.0 | 0.0 | 0.00 | 0.00 | 0.00 | 9 | 1018.3 |
| 20260509022509 | 47 | 263 | 1.0 | 1.0 | 0.00 | 0.00 | 0.00 | 9 | 1018.3 |
| 20260509022009 | 47 | 0 | 0.0 | 0.0 | 0.00 | 0.00 | 0.00 | 9 | 1018.4 |
| 20260509021508 | 47 | 0 | 0.0 | 0.0 | 0.00 | 0.00 | 0.00 | 9 | 1018.3 |
| 20260509021008 | 47 | 0 | 0.0 | 0.0 | 0.00 | 0.00 | 0.00 | 9 | 1018.4 |
| 20260509020508 | 47 | 0 | 0.0 | 0.0 | 0.00 | 0.00 | 0.00 | 9 | 1018.3 |
| 20260509020007 | 47 | 346 | 0.0 | 1.0 | 0.00 | 0.00 | 0.00 | 9 | 1018.3 |
| 20260509015507 | 47 | 0 | 0.0 | 0.0 | 0.00 | 0.00 | 0.00 | 9 | 1018.5 |
| 20260509015007 | 47 | 330 | 0.0 | 1.0 | 0.00 | 0.00 | 0.00 | 9 | 1018.5 |
| 20260509014506 | 47 | 313 | 0.0 | 1.0 | 0.00 | 0.00 | 0.00 | 9 | 1018.3 |
| 20260509014006 | 47 | 0 | 0.0 | 0.0 | 0.00 | 0.00 | 0.00 | 9 | 1018.6 |
| 20260509013506 | 47 | 5 | 0.0 | 1.0 | 0.00 | 0.00 | 0.00 | 9 | 1018.4 |
| 20260509013005 | 47 | 330 | 0.0 | 1.0 | 0.00 | 0.00 | 0.00 | 9 | 1018.5 |
| 20260509012505 | 47 | 0 | 0.0 | 0.0 | 0.00 | 0.00 | 0.00 | 8 | 1018.4 |
| 20260509012005 | 47 | 0 | 0.0 | 0.0 | 0.00 | 0.00 | 0.00 | 8 | 1018.5 |
| 20260509011504 | 47 | 0 | 0.0 | 0.0 | 0.00 | 0.00 | 0.00 | 8 | 1018.4 |
| 20260509011004 | 47 | 0 | 0.0 | 0.0 | 0.00 | 0.00 | 0.00 | 8 | 1018.6 |
| 20260509010504 | 47 | 0 | 0.0 | 0.0 | 0.00 | 0.00 | 0.00 | 8 | 1018.1 |
| 20260509010004 | 48 | 313 | 0.0 | 1.0 | 0.00 | 0.00 | 0.00 | 8 | 1018.3 |
| 20260509005503 | 48 | 318 | 0.0 | 1.0 | 0.00 | 0.00 | 0.00 | 8 | 1018.4 |
| 20260509005003 | 48 | 0 | 0.0 | 0.0 | 0.00 | 0.00 | 0.00 | 8 | 1018.3 |
| 20260509004502 | 48 | 0 | 0.0 | 0.0 | 0.00 | 0.00 | 0.00 | 8 | 1018.5 |
| 20260509004002 | 48 | 0 | 0.0 | 0.0 | 0.00 | 0.00 | 0.00 | 8 | 1018.4 |
| 20260509003502 | 47 | 0 | 0.0 | 0.0 | 0.00 | 0.00 | 0.00 | 8 | 1018.5 |
| 20260509003001 | 47 | 335 | 0.0 | 1.0 | 0.00 | 0.00 | 0.00 | 8 | 1018.5 |
| 20260509002501 | 48 | 357 | 0.0 | 1.0 | 0.00 | 0.00 | 0.00 | 8 | 1018.4 |
| 20260509002000 | 48 | 0 | 0.0 | 0.0 | 0.00 | 0.00 | 0.00 | 8 | 1018.4 |
| 20260509001500 | 48 | 0 | 0.0 | 0.0 | 0.00 | 0.00 | 0.00 | 8 | 1018.5 |
| 20260509001000 | 48 | 358 | 0.0 | 1.0 | 0.00 | 0.00 | 0.00 | 8 | 1018.5 |
| 20260509000459 | 48 | 0 | 0.0 | 0.0 | 0.00 | 0.00 | 0.00 | 8 | 1018.6 |
| 20260508235959 | 48 | 0 | 0.0 | 0.0 | 0.00 | 0.00 | 0.00 | 8 | 1018.6 |
| 20260508235459 | 48 | 0 | 0.0 | 0.0 | 0.00 | 0.00 | 0.00 | 8 | 1018.7 |
| 20260508234958 | 48 | 0 | 0.0 | 0.0 | 0.00 | 0.00 | 0.00 | 8 | 1018.8 |
| 20260508234458 | 48 | 0 | 0.0 | 0.0 | 0.00 | 0.00 | 0.00 | 8 | 1018.7 |
| 20260508233958 | 48 | 0 | 0.0 | 0.0 | 0.00 | 0.00 | 0.00 | 8 | 1018.5 |
| 20260508233457 | 48 | 0 | 0.0 | 0.0 | 0.00 | 0.00 | 0.00 | 8 | 1018.5 |
| 20260508232957 | 48 | 0 | 0.0 | 0.0 | 0.00 | 0.00 | 0.00 | 8 | 1018.5 |
| 20260508232457 | 48 | 0 | 0.0 | 0.0 | 0.00 | 0.00 | 0.00 | 8 | 1018.6 |
| 20260508231956 | 48 | 0 | 0.0 | 0.0 | 0.00 | 0.00 | 0.00 | 8 | 1018.3 |
| 20260508231456 | 48 | 0 | 0.0 | 0.0 | 0.00 | 0.00 | 0.00 | 8 | 1018.4 |
| 20260508230956 | 48 | 0 | 0.0 | 0.0 | 0.00 | 0.00 | 0.00 | 8 | 1018.6 |
| 20260508230455 | 48 | 0 | 0.0 | 0.0 | 0.00 | 0.00 | 0.00 | 8 | 1018.6 |
| 20260508225955 | 48 | 0 | 0.0 | 0.0 | 0.00 | 0.00 | 0.00 | 8 | 1018.5 |
| 20260508225455 | 48 | 0 | 0.0 | 0.0 | 0.00 | 0.00 | 0.00 | 8 | 1018.5 |
| 20260508224954 | 48 | 0 | 0.0 | 0.0 | 0.00 | 0.00 | 0.00 | 8 | 1018.6 |
| 20260508224454 | 48 | 324 | 0.0 | 1.0 | 0.00 | 0.00 | 0.00 | 8 | 1018.6 |
| 20260508223954 | 48 | 0 | 0.0 | 0.0 | 0.00 | 0.00 | 0.00 | 8 | 1018.5 |
| 20260508223453 | 48 | 0 | 0.0 | 0.0 | 0.00 | 0.00 | 0.00 | 8 | 1018.5 |
| 20260508222953 | 48 | 0 | 0.0 | 0.0 | 0.00 | 0.00 | 0.00 | 8 | 1018.6 |
| 20260508222453 | 48 | 314 | 0.0 | 1.0 | 0.00 | 0.00 | 0.00 | 8 | 1018.3 |
| 20260508221952 | 48 | 0 | 0.0 | 0.0 | 0.00 | 0.00 | 0.00 | 8 | 1018.5 |
| 20260508221452 | 48 | 0 | 0.0 | 0.0 | 0.00 | 0.00 | 0.00 | 8 | 1018.6 |
| 20260508220952 | 48 | 0 | 0.0 | 0.0 | 0.00 | 0.00 | 0.00 | 8 | 1018.7 |
| 20260508220451 | 48 | 0 | 0.0 | 0.0 | 0.00 | 0.00 | 0.00 | 8 | 1018.5 |
| 20260508215951 | 48 | 8 | 0.0 | 1.0 | 0.00 | 0.00 | 0.00 | 8 | 1018.5 |
| 20260508215451 | 48 | 0 | 0.0 | 0.0 | 0.00 | 0.00 | 0.00 | 8 | 1018.7 |
| 20260508214950 | 48 | 0 | 0.0 | 0.0 | 0.00 | 0.00 | 0.00 | 8 | 1018.7 |
| 20260508214450 | 49 | 0 | 0.0 | 0.0 | 0.00 | 0.00 | 0.00 | 8 | 1018.4 |
| 20260508213950 | 49 | 0 | 0.0 | 0.0 | 0.00 | 0.00 | 0.00 | 8 | 1018.6 |
| 20260508213449 | 49 | 0 | 0.0 | 0.0 | 0.00 | 0.00 | 0.00 | 8 | 1018.7 |
| 20260508212949 | 49 | 0 | 0.0 | 0.0 | 0.00 | 0.00 | 0.00 | 8 | 1018.7 |
| 20260508212449 | 49 | 0 | 0.0 | 0.0 | 0.00 | 0.00 | 0.00 | 8 | 1018.7 |
| 20260508211948 | 49 | 328 | 0.0 | 1.0 | 0.00 | 0.00 | 0.00 | 8 | 1018.7 |
| 20260508211448 | 49 | 0 | 0.0 | 0.0 | 0.00 | 0.00 | 0.00 | 8 | 1018.8 |
| 20260508210948 | 49 | 0 | 0.0 | 0.0 | 0.00 | 0.00 | 0.00 | 8 | 1018.8 |
| 20260508210448 | 49 | 350 | 0.0 | 1.0 | 0.00 | 0.00 | 0.00 | 8 | 1018.8 |
| 20260508205947 | 49 | 0 | 0.0 | 0.0 | 0.00 | 0.00 | 0.00 | 8 | 1018.9 |
| 20260508205447 | 49 | 0 | 0.0 | 0.0 | 0.00 | 0.00 | 0.00 | 8 | 1018.7 |
| 20260508204946 | 49 | 0 | 0.0 | 0.0 | 0.00 | 0.00 | 0.00 | 8 | 1018.7 |
| 20260508204446 | 49 | 0 | 0.0 | 0.0 | 0.00 | 0.00 | 0.00 | 8 | 1018.6 |
| 20260508203946 | 49 | 0 | 0.0 | 0.0 | 0.00 | 0.00 | 0.00 | 8 | 1018.6 |
| 20260508203445 | 49 | 0 | 0.0 | 0.0 | 0.00 | 0.00 | 0.00 | 8 | 1018.7 |
| 20260508202945 | 49 | 0 | 0.0 | 0.0 | 0.00 | 0.00 | 0.00 | 8 | 1018.7 |
| 20260508202445 | 49 | 0 | 0.0 | 0.0 | 0.00 | 0.00 | 0.00 | 8 | 1018.8 |
| 20260508201944 | 49 | 0 | 0.0 | 0.0 | 0.00 | 0.00 | 0.00 | 8 | 1018.6 |
| 20260508201444 | 49 | 29 | 1.0 | 2.0 | 0.00 | 0.00 | 0.00 | 8 | 1018.4 |
| 20260508200944 | 49 | 0 | 0.0 | 0.0 | 0.00 | 0.00 | 0.00 | 8 | 1018.4 |
| 20260508200444 | 49 | 0 | 0.0 | 0.0 | 0.00 | 0.00 | 0.00 | 8 | 1018.4 |
| 20260508195943 | 49 | 0 | 0.0 | 0.0 | 0.00 | 0.00 | 0.00 | 8 | 1018.5 |
| 20260508195443 | 50 | 0 | 0.0 | 0.0 | 0.00 | 0.00 | 0.00 | 8 | 1018.5 |
| 20260508194943 | 50 | 0 | 0.0 | 0.0 | 0.00 | 0.00 | 0.00 | 8 | 1018.5 |